FW6618 Weather Reports


Display with metric or nautical units.
time (UTC)temp
F
wind
direction
speed
MPH
gust
MPH
rain 1hr
in
rain 24hr
in
rain mn
in
humidity
%
barometer
mb
20260506192517 58 206 2.0 8.0 0.20 1.13 1.07 96 1006.1
20260506192018 58 224 1.0 4.0 0.19 1.10 1.04 96 1006.2
20260506191543 58 93 1.0 4.0 0.18 1.08 1.02 96 1006.3
20260506191020 59 234 1.0 4.0 0.17 1.04 0.99 96 1006.4
20260506190525 59 225 1.0 4.0 0.17 1.02 0.96 96 1006.4
20260506190038 59 75 1.0 3.0 0.19 1.01 0.95 96 1006.5
20260506185519 58 215 0.0 3.0 0.20 1.00 0.94 96 1006.6
20260506185018 59 271 1.0 3.0 0.20 0.98 0.92 96 1006.7
20260506184537 59 204 1.0 3.0 0.19 0.96 0.90 96 1006.6
20260506184017 59 300 0.0 2.0 0.20 0.96 0.90 96 1006.7
20260506183517 59 0 0.0 4.0 0.20 0.95 0.89 96 1006.7
20260506183041 58 139 1.0 4.0 0.21 0.94 0.88 96 1006.8
20260506182519 58 230 0.0 3.0 0.21 0.93 0.87 96 1006.9
20260506182018 58 316 1.0 3.0 0.21 0.91 0.85 96 1007.0
20260506181532 59 276 0.0 3.0 0.20 0.89 0.83 96 1007.1
20260506181017 59 221 1.0 5.0 0.20 0.87 0.81 96 1007.0
20260506180516 59 210 1.0 5.0 0.20 0.85 0.79 96 1007.3
20260506180036 59 5 1.0 5.0 0.18 0.82 0.76 96 1007.2
20260506175519 59 332 1.0 5.0 0.18 0.80 0.74 96 1007.3
20260506175017 59 194 0.0 5.0 0.18 0.78 0.72 96 1007.3
20260506174531 59 283 2.0 4.0 0.19 0.77 0.71 96 1007.3
20260506174017 59 341 1.0 3.0 0.20 0.76 0.70 96 1007.3
20260506173518 59 323 1.0 4.0 0.20 0.74 0.68 96 1007.4
20260506173038 58 327 1.0 4.0 0.21 0.73 0.67 96 1007.5
20260506172521 58 283 1.0 3.0 0.22 0.72 0.66 96 1007.4
20260506172018 58 253 1.0 3.0 0.22 0.70 0.64 96 1007.5
20260506171539 58 333 1.0 3.0 0.23 0.69 0.63 96 1007.7
20260506171021 58 161 1.0 3.0 0.23 0.67 0.61 96 1007.7
20260506170522 58 309 0.0 3.0 0.25 0.65 0.58 96 1007.8
20260506170046 58 30 0.0 3.0 0.27 0.64 0.58 96 1007.9
20260506165521 58 227 1.0 3.0 0.27 0.62 0.56 96 1007.9
20260506165020 58 143 1.0 4.0 0.27 0.60 0.54 96 1008.0
20260506164534 58 245 1.0 4.0 0.27 0.58 0.52 96 1008.1
20260506164023 58 225 0.0 5.0 0.26 0.56 0.50 96 1008.0
20260506163517 58 224 1.0 5.0 0.25 0.54 0.48 96 1008.1
20260506163042 58 0 0.0 0.0 0.25 0.52 0.46 96 1008.1
20260506162523 58 0 0.0 0.0 0.25 0.50 0.44 96 1008.2
20260506162024 58 0 0.0 0.0 0.25 0.48 0.42 96 1008.1
20260506161540 58 0 0.0 0.0 0.24 0.46 0.40 96 1008.3
20260506161021 58 0 0.0 0.0 0.22 0.43 0.37 96 1008.2
20260506160522 58 0 0.0 0.0 0.20 0.40 0.34 95 1008.3
20260506160041 58 0 0.0 0.0 0.18 0.37 0.31 96 1008.3
20260506155522 58 0 0.0 0.0 0.16 0.34 0.28 96 1008.1
20260506155020 58 0 0.0 0.0 0.16 0.33 0.27 96 1008.3
20260506154541 58 0 0.0 0.0 0.15 0.31 0.25 96 1008.4
20260506154019 58 0 0.0 0.0 0.16 0.30 0.24 96 1008.3
20260506153519 58 0 0.0 0.0 0.17 0.29 0.23 95 1008.5
20260506153034 58 0 0.0 0.0 0.16 0.27 0.21 95 1008.6
20260506152518 58 0 0.0 0.0 0.15 0.25 0.19 95 1008.8
20260506152021 58 0 0.0 0.0 0.13 0.23 0.17 95 1008.9
20260506151537 58 0 0.0 0.0 0.12 0.22 0.16 96 1008.9
20260506151017 58 0 0.0 0.0 0.11 0.21 0.15 95 1008.9
20260506150518 58 0 0.0 0.0 0.11 0.20 0.14 95 1009.1
20260506150038 57 0 0.0 0.0 0.10 0.19 0.13 95 1009.1
20260506145521 57 0 0.0 0.0 0.09 0.18 0.12 95 1009.2
20260506145020 57 0 0.0 0.0 0.09 0.17 0.11 95 1009.3
20260506144545 57 0 0.0 0.0 0.08 0.16 0.10 95 1009.4
20260506144020 57 0 0.0 0.0 0.06 0.14 0.08 95 1009.4
20260506143518 57 0 0.0 0.0 0.05 0.12 0.06 95 1009.7
20260506143035 57 0 0.0 0.0 0.04 0.11 0.05 95 1009.7
20260506142520 58 0 0.0 0.0 0.03 0.10 0.04 95 1009.7
20260506142019 58 0 0.0 0.0 0.03 0.10 0.04 95 1009.5
20260506141535 57 0 0.0 0.0 0.03 0.10 0.04 95 1009.5
20260506141019 57 0 0.0 0.0 0.03 0.10 0.04 95 1009.4
20260506140520 57 0 0.0 0.0 0.03 0.09 0.03 95 1009.2
20260506140034 57 0 0.0 0.0 0.03 0.09 0.03 95 1009.3
20260506135519 57 0 0.0 0.0 0.03 0.09 0.03 95 1009.2
20260506135018 57 0 0.0 0.0 0.02 0.08 0.02 95 1009.2
20260506134537 57 0 0.0 0.0 0.02 0.08 0.02 95 1009.0
20260506134019 57 0 0.0 0.0 0.01 0.07 0.01 95 1009.1
20260506133519 57 0 0.0 0.0 0.01 0.07 0.01 95 1009.0
20260506133037 57 0 0.0 0.0 0.01 0.07 0.01 95 1009.0
20260506132519 57 0 0.0 0.0 0.01 0.07 0.01 95 1009.0
20260506132022 57 0 0.0 0.0 0.01 0.07 0.01 95 1008.9
20260506131537 56 0 0.0 0.0 0.01 0.07 0.01 95 1009.0
20260506131017 56 0 0.0 0.0 0.01 0.07 0.01 95 1009.1
20260506130520 56 0 0.0 0.0 0.00 0.06 0.00 95 1009.0
20260506130037 56 0 0.0 0.0 0.00 0.06 0.00 95 1009.3
20260506125517 56 0 0.0 0.0 0.00 0.06 0.00 95 1009.3
20260506125023 56 0 0.0 0.0 0.00 0.06 0.00 95 1009.5
20260506124536 56 0 0.0 0.0 0.00 0.06 0.00 95 1009.6
20260506124021 56 0 0.0 0.0 0.00 0.06 0.00 95 1009.7
20260506123521 56 0 0.0 0.0 0.00 0.06 0.00 95 1009.6
20260506123035 56 0 0.0 0.0 0.00 0.06 0.00 95 1010.0
20260506122516 55 0 0.0 1.0 0.00 0.06 0.00 95 1009.8
20260506122017 55 0 0.0 1.0 0.00 0.06 0.00 95 1009.7
20260506121538 55 247 0.0 1.0 0.00 0.06 0.00 95 1009.5
20260506121018 55 0 0.0 1.0 0.00 0.06 0.00 95 1009.5
20260506120518 54 246 0.0 1.0 0.00 0.06 0.00 95 1009.5
20260506120042 54 271 0.0 3.0 0.00 0.06 0.00 95 1009.6
20260506115520 54 271 1.0 3.0 0.00 0.07 0.00 95 1009.5
20260506115019 54 176 0.0 3.0 0.00 0.07 0.00 95 1009.0
20260506114534 54 207 1.0 3.0 0.00 0.07 0.00 95 1009.1
20260506114020 54 24 1.0 2.0 0.00 0.07 0.00 95 1009.1
20260506113519 54 101 1.0 2.0 0.00 0.07 0.00 95 1009.3
20260506113034 53 327 0.0 3.0 0.00 0.07 0.00 95 1009.4
20260506112518 53 327 1.0 3.0 0.00 0.07 0.00 95 1009.4
20260506112018 53 242 0.0 2.0 0.00 0.07 0.00 95 1009.4
20260506111538 53 245 1.0 2.0 0.00 0.07 0.00 95 1009.6
20260506111019 53 200 0.0 0.0 0.00 0.07 0.00 95 1009.5
20260506110518 53 0 0.0 0.0 0.00 0.07 0.00 95 1009.4
20260506110037 53 0 0.0 0.0 0.00 0.07 0.00 95 1009.3
20260506105520 53 0 0.0 0.0 0.00 0.08 0.00 95 1009.3
20260506105020 52 0 0.0 1.0 0.00 0.08 0.00 95 1009.4
20260506104539 52 0 0.0 1.0 0.00 0.08 0.00 95 1009.1
20260506104018 52 0 0.0 1.0 0.00 0.08 0.00 95 1009.1
20260506103518 52 165 0.0 1.0 0.00 0.08 0.00 95 1009.2
20260506103046 52 172 0.0 1.0 0.00 0.08 0.00 95 1009.2
20260506102520 52 171 0.0 1.0 0.00 0.08 0.00 95 1009.1
20260506102020 52 171 0.0 1.0 0.00 0.08 0.00 95 1009.0
20260506101536 52 0 0.0 1.0 0.00 0.08 0.00 95 1009.2
20260506101024 52 170 0.0 1.0 0.00 0.08 0.00 95 1009.1
20260506100522 52 0 0.0 0.0 0.00 0.08 0.00 95 1009.0
20260506100038 52 0 0.0 0.0 0.00 0.08 0.00 95 1009.2
20260506095521 52 0 0.0 0.0 0.00 0.08 0.00 95 1009.1
20260506095020 52 0 0.0 0.0 0.00 0.08 0.00 95 1009.1
20260506094539 52 164 0.0 0.0 0.00 0.08 0.00 95 1009.2
20260506094018 52 0 0.0 0.0 0.00 0.08 0.00 95 1009.1
20260506093522 52 164 0.0 0.0 0.00 0.08 0.00 95 1009.0
20260506093037 52 0 0.0 0.0 0.00 0.08 0.00 95 1009.0
20260506092518 52 0 0.0 0.0 0.00 0.08 0.00 95 1009.2
20260506092018 52 0 0.0 0.0 0.00 0.08 0.00 95 1009.3
20260506091537 52 0 0.0 0.0 0.00 0.08 0.00 95 1009.1
20260506091019 52 0 0.0 0.0 0.00 0.08 0.00 95 1009.2
20260506090519 52 0 0.0 0.0 0.00 0.08 0.00 95 1009.3
20260506090044 52 0 0.0 0.0 0.00 0.08 0.00 95 1009.3
20260506085521 52 0 0.0 0.0 0.00 0.08 0.00 95 1009.5
20260506085019 52 0 0.0 0.0 0.00 0.08 0.00 95 1009.3
20260506084541 53 0 0.0 0.0 0.00 0.08 0.00 95 1009.5
20260506084019 53 0 0.0 0.0 0.00 0.08 0.00 95 1009.6
20260506083518 53 0 0.0 0.0 0.00 0.08 0.00 95 1009.6
20260506083036 53 164 0.0 0.0 0.00 0.08 0.00 94 1009.7
20260506082515 53 0 0.0 0.0 0.00 0.08 0.00 95 1009.6
20260506082018 53 0 0.0 0.0 0.00 0.08 0.00 94 1009.8
20260506081541 53 0 0.0 0.0 0.00 0.08 0.00 94 1009.7
20260506081017 53 0 0.0 0.0 0.00 0.08 0.00 94 1009.8
20260506080519 53 0 0.0 0.0 0.00 0.08 0.00 94 1010.0
20260506073518 54 0 0.0 0.0 0.00 0.08 0.00 94 1009.9
20260506073043 54 0 0.0 0.0 0.00 0.08 0.00 94 1010.0
20260506072518 55 0 0.0 0.0 0.00 0.08 0.00 94 1010.1
20260506072017 55 0 0.0 0.0 0.00 0.08 0.00 94 1010.0
20260506071535 55 0 0.0 0.0 0.00 0.08 0.00 94 1010.0
20260506071019 55 0 0.0 0.0 0.00 0.08 0.00 94 1010.0
20260506070517 56 164 0.0 0.0 0.00 0.08 0.00 94 1009.9
20260506062018 57 0 0.0 0.0 0.00 0.08 0.00 93 1010.2
20260506061548 57 0 0.0 0.0 0.00 0.08 0.00 93 1010.3
20260506061019 58 0 0.0 0.0 0.00 0.08 0.00 92 1010.1
20260506060523 58 0 0.0 1.0 0.00 0.08 0.00 92 1010.1
20260506051018 60 281 0.0 9.0 0.00 0.08 0.00 90 1010.6
20260506050529 60 28 3.0 9.0 0.00 0.08 0.00 90 1010.6
20260506045020 57 77 1.0 2.0 0.00 0.08 0.00 94 1010.6
20260506044546 57 0 0.0 1.0 0.00 0.08 0.00 94 1010.5
20260506044021 57 331 0.0 1.0 0.00 0.08 0.00 94 1010.7
20260506043519 57 0 0.0 2.0 0.00 0.08 0.00 94 1010.7
20260506043041 57 0 0.0 2.0 0.00 0.08 0.00 94 1010.6
20260506042519 57 337 0.0 1.0 0.00 0.08 0.00 94 1010.7
20260506042018 57 0 0.0 1.0 0.00 0.08 0.00 94 1010.5
20260506041536 57 0 0.0 0.0 0.00 0.08 0.00 95 1010.4
20260506041019 57 0 0.0 0.0 0.00 0.08 0.00 94 1010.4
20260506040519 57 0 0.0 0.0 0.00 0.08 0.00 95 1010.5
20260506040035 57 0 0.0 0.0 0.00 0.08 0.00 95 1010.4
20260506035523 57 0 0.0 0.0 0.00 0.08 0.08 95 1010.4
20260506035017 57 0 0.0 0.0 0.00 0.08 0.08 95 1010.3
20260506034533 57 0 0.0 0.0 0.00 0.08 0.08 95 1010.4
20260506034016 57 0 0.0 0.0 0.00 0.08 0.08 95 1010.4
20260506033518 57 0 0.0 0.0 0.01 0.08 0.08 95 1010.3
20260506033038 57 0 0.0 0.0 0.01 0.08 0.08 95 1010.1
20260506032516 57 0 0.0 0.0 0.01 0.08 0.08 94 1010.2
20260506032017 57 0 0.0 0.0 0.01 0.08 0.08 94 1010.1
20260506031546 57 0 0.0 0.0 0.01 0.08 0.08 94 1010.3
20260506031019 57 0 0.0 2.0 0.01 0.08 0.08 94 1010.2
20260506030521 57 0 0.0 2.0 0.01 0.08 0.08 94 1009.9
20260506030036 57 246 1.0 2.0 0.01 0.08 0.08 94 1009.7
20260506025521 57 55 1.0 2.0 0.01 0.08 0.08 94 1010.0
20260506025019 57 294 0.0 3.0 0.01 0.08 0.08 94 1010.1
20260506024543 57 25 1.0 3.0 0.01 0.08 0.08 94 1010.0
20260506024019 57 148 1.0 3.0 0.00 0.07 0.07 94 1010.4
20260506023520 57 0 0.0 0.0 0.00 0.07 0.07 94 1010.4
20260506023032 57 0 0.0 0.0 0.00 0.07 0.07 94 1010.0
20260506022518 57 0 0.0 0.0 0.00 0.07 0.07 94 1010.2
20260506022017 57 0 0.0 0.0 0.00 0.07 0.07 94 1010.0
20260506021532 57 0 0.0 0.0 0.00 0.07 0.07 94 1009.8
20260506021019 57 0 0.0 0.0 0.00 0.07 0.07 93 1010.3
20260506020519 57 0 0.0 0.0 0.00 0.07 0.07 93 1010.0
20260506020031 57 0 0.0 0.0 0.00 0.07 0.07 93 1010.0
20260506015519 57 0 0.0 0.0 0.00 0.07 0.07 93 1010.0
20260506015019 57 0 0.0 0.0 0.00 0.07 0.07 93 1010.0
20260506014535 57 0 0.0 0.0 0.00 0.07 0.07 93 1010.0
20260506014023 57 0 0.0 0.0 0.00 0.07 0.07 92 1009.9
20260506013517 57 0 0.0 0.0 0.00 0.07 0.07 92 1010.0
20260506013036 57 0 0.0 0.0 0.00 0.07 0.07 92 1009.7
20260506012518 57 0 0.0 0.0 0.00 0.07 0.07 92 1009.8
20260506012021 57 0 0.0 0.0 0.00 0.07 0.07 92 1009.8
20260506011537 57 0 0.0 0.0 0.00 0.07 0.07 92 1009.5
20260506011018 57 0 0.0 0.0 0.00 0.07 0.07 92 1009.7
20260506010519 57 0 0.0 0.0 0.00 0.07 0.07 92 1009.5
20260506010035 57 0 0.0 0.0 0.00 0.07 0.07 92 1009.6
20260506005521 57 0 0.0 0.0 0.00 0.07 0.07 92 1009.3
20260506005019 57 0 0.0 0.0 0.00 0.07 0.07 92 1009.3
20260506004537 58 0 0.0 0.0 0.00 0.07 0.07 92 1009.2
20260506004018 58 0 0.0 0.0 0.00 0.07 0.07 92 1009.2
20260506003519 58 0 0.0 0.0 0.00 0.07 0.07 91 1009.2
20260506003032 59 0 0.0 0.0 0.00 0.07 0.07 91 1009.1
20260506002519 59 0 0.0 0.0 0.00 0.07 0.07 91 1009.2
20260506002019 59 0 0.0 0.0 0.00 0.07 0.07 91 1009.1
20260506001540 60 0 0.0 0.0 0.00 0.07 0.07 90 1008.8
20260506001019 60 0 0.0 0.0 0.00 0.07 0.07 90 1008.4
20260506000518 60 0 0.0 2.0 0.00 0.07 0.07 89 1008.6
20260506000040 61 348 0.0 2.0 0.00 0.07 0.07 89 1008.7
20260505235521 61 350 0.0 2.0 0.00 0.07 0.07 88 1008.6
20260505235018 61 0 0.0 0.0 0.00 0.07 0.07 87 1008.5
20260505234535 62 0 0.0 0.0 0.00 0.07 0.07 86 1008.8
20260505234022 62 0 0.0 1.0 0.00 0.07 0.07 85 1008.9
20260505233516 63 33 0.0 1.0 0.00 0.07 0.07 84 1009.0
20260505233037 63 34 0.0 1.0 0.00 0.07 0.07 80 1009.0
20260505232519 64 33 0.0 2.0 0.00 0.07 0.07 80 1008.7
20260505232024 64 108 0.0 2.0 0.00 0.07 0.07 77 1008.8
20260505231538 64 104 1.0 2.0 0.00 0.07 0.07 75 1008.6
20260505231022 64 85 1.0 2.0 0.00 0.07 0.07 78 1008.5
20260505230518 64 89 1.0 2.0 0.00 0.07 0.07 78 1008.5
20260505230036 64 347 1.0 4.0 0.00 0.07 0.07 78 1008.6
20260505225516 65 257 0.0 4.0 0.00 0.07 0.07 76 1008.7
20260505225020 65 127 2.0 5.0 0.00 0.07 0.07 75 1009.0
20260505224537 65 145 2.0 5.0 0.01 0.07 0.07 74 1008.9
20260505224019 65 283 1.0 4.0 0.01 0.07 0.07 74 1008.9
20260505223524 66 169 1.0 4.0 0.02 0.07 0.07 72 1008.8
20260505223037 66 153 1.0 7.0 0.03 0.07 0.07 72 1008.8
20260505222519 65 104 3.0 7.0 0.03 0.07 0.07 72 1008.2
20260505222017 65 94 2.0 6.0 0.03 0.07 0.07 75 1008.3
20260505221537 65 79 2.0 6.0 0.03 0.07 0.07 77 1008.2
20260505221019 64 229 2.0 5.0 0.03 0.07 0.07 76 1008.3
20260505220517 64 155 1.0 8.0 0.03 0.07 0.07 78 1008.0
20260505220038 64 54 2.0 8.0 0.03 0.07 0.07 80 1007.7
20260505215518 64 340 1.0 8.0 0.03 0.07 0.07 82 1007.7
20260505215018 64 259 2.0 8.0 0.03 0.07 0.07 80 1007.9
20260505214600 65 37 1.0 6.0 0.02 0.06 0.06 79 1007.7
20260505214018 66 326 2.0 6.0 0.02 0.06 0.06 74 1007.8
20260505213518 67 74 2.0 4.0 0.00 0.04 0.04 69 1007.8
20260505213038 67 245 2.0 4.0 0.01 0.04 0.04 69 1007.4
20260505212521 67 319 0.0 5.0 0.01 0.04 0.04 72 1006.9
20260505212016 67 75 2.0 5.0 0.02 0.04 0.04 71 1006.6
20260505211535 67 82 2.0 5.0 0.02 0.04 0.04 73 1006.5
20260505211016 67 79 3.0 5.0 0.02 0.04 0.04 74 1006.4
20260505210516 66 102 2.0 9.0 0.02 0.04 0.04 75 1006.3
20260505210036 66 225 2.0 10.0 0.02 0.04 0.04 76 1006.1
20260505205517 66 271 4.0 11.0 0.02 0.04 0.04 77 1006.0
20260505205018 65 15 5.0 11.0 0.02 0.04 0.04 77 1006.3
20260505204535 64 321 3.0 8.0 0.02 0.04 0.04 80 1005.7
20260505204017 64 306 4.0 11.0 0.02 0.04 0.04 78 1006.0
20260505203522 65 276 4.0 11.0 0.02 0.04 0.04 75 1006.2
20260505203034 67 280 6.0 12.0 0.01 0.03 0.03 70 1006.0
20260505202517 70 319 5.0 12.0 0.00 0.02 0.02 64 1005.6
20260505202019 74 329 6.0 12.0 0.00 0.02 0.02 53 1006.1
20260505201531 76 319 2.0 12.0 0.00 0.02 0.02 47 1005.4
20260505201018 77 322 3.0 10.0 0.00 0.02 0.02 45 1004.9
20260505200515 77 285 4.0 13.0 0.00 0.02 0.02 44 1004.8
20260505200043 78 304 3.0 13.0 0.00 0.02 0.02 44 1005.0
20260505195520 78 202 3.0 15.0 0.00 0.02 0.02 42 1004.9
20260505195018 78 156 4.0 15.0 0.00 0.02 0.02 43 1004.9
20260505194532 79 177 4.0 15.0 0.00 0.02 0.02 40 1005.0
20260505194019 79 150 4.0 15.0 0.00 0.02 0.02 42 1005.0
20260505193519 79 223 3.0 17.0 0.00 0.02 0.02 41 1005.0
20260505193035 79 141 5.0 17.0 0.00 0.02 0.02 41 1005.2